Погода в Покровке

Россия / Оренбургская область     51°59′23″N   53°52′28″E
темп.,
°C
ветер,
м/с
пор.,
м/с
влажн.,
%
обл.,
%
осадки,
мм/ч
давл.,
гПа
погр.,
м
27 февраля, сб
сб2723:00−16юв6129497 0.1 1018312
02:00−14ююв71394100 0.1 1013406
05:00−11ююв101794100 2.1 1008512
08:00−9ююв91594100 4.7 1004557
11:00−6ююв71194100 5.5 1003357
14:00−2ю3498100 0.7 1001176
17:000зюз5899100 1.0 1001416
20:000юз5898100 0.1 1001386
28 февраля, вс
вс2823:000юз5898100 0.5 1000431
02:00−1юз5997100 0.4 999448
05:00−1юз51098100 1.3 998445
08:00−1юз4898100 0.3 999369
11:00−5з4695100 1.0 1000289
14:00−8зсз579398 0.1 1003336
17:00−9зсз689399 0.3 1006430
20:00−12з4895100 0.1 1009239
1 марта, пн
пн123:00−15з469698 0.1 1011128
02:00−17з349792 0.1 101379
05:00−16з349796 0.1 101594
08:00−16зсз349797 0.1 1016121
11:00−15сз359493 0.3 1018255
14:00−13зсз459399 0.1 1019349
17:00−13зсз359499 0.1 1021352
20:00−18зсз2399100 0.1 102221
2 марта, вт
вт223:00−21сз2210091 0.1 102320
02:00−22зсз2210068 0.0 102320
05:00−24з2210051 0.0 102320
08:00−24юз2210040 0.0 102220
11:00−21ююз359837 0.0 1022156
14:00−17ююз589675 0.0 1020276
17:00−15ююз6109687 0.0 1018341
20:00−15ю61195100 0.1 1015340
3 марта, ср
ср323:00−12ю61394100 0.3 1013369
02:00−6ю71495100 0.6 1009546
05:00−4ююз71396100 2.0 1006659
08:00−3ю81496100 1.3 1004710
11:00−2ююз71296100 2.6 1003731
14:00−1юз6997100 0.9 1002626
17:00−1зюз5895100 1.3 1002530
20:00−3зюз5997100 0.4 1003313